Location: Asheville, NC
(35.6000°N, 82.5500°W)
Time: 11:54:39
(UTC-04:00)

Vanguard 1 Rocket - Pass Details

Date: 08 March 2018
Orbit: 653 x 4224 km, 34.3° (Epoch: 20 June)

Event Time Altitude Azimuth Distance (km) Brightness Sun altitude
Rises 18:52:12 0° 233° (SW) 3,995 11.7 -5.0°
Reaches altitude 10° 18:54:25 10° 229° (SW) 3,309 11.1 -5.4°
Maximum altitude 19:02:52 60° 151° (SSE) 2,201 9.2 -7.1°
Drops below altitude 10° 19:19:38 10° 78° (ENE) 6,224 11.0 -10.5°
Enters shadow 19:19:47 10° 78° (ENE) 6,262 11.0 -10.6°
Sets 19:25:39 0° 76° (ENE) 7,726 - -11.8°
